Regional Weather Roundup
Issued by NWS

Home | Current Version | Previous Version | Text Only | Print | Product List | Glossary On
Versions: 1 2 3 4 5 6 7 8 9 10 11 12 13 14 15 16 17 18 19 20 21 22 23 24 25 26 27 28 29 30 31 32 33 34 35 36 37 38 39 40 41 42 43 44 45 46 47 48 49 50
116
ASUS44 KMEG 292210
RWRTN
TENNESSEE HOURLY STATE WEATHER ROUNDUP
NATIONAL WEATHER SERVICE MEMPHIS TN
500 PM CDT FRI APR 29 2016

TNZ002-004-019-021-049-052-054-088>092-292300-
WEST TENNESSEE

CITY           SKY/WX    TMP DP  RH WIND       PRES   REMARKS
MEMPHIS INTL   CLOUDY    66  62  87 SE12G20   29.87F
NWS MEMPHIS      N/A     63 N/A N/A MISG        N/A
JACKSON        CLOUDY    65  60  84 E8        29.95F
DYERSBURG      CLOUDY    63  57  82 SE13G24     N/A
UNION CITY     MOSUNNY   63  61  94 E10       29.90F
LEXINGTON      PTSUNNY   63  63 100 SE10      29.94F
$$

TNZ008-025-027-028-033-062-065-066-292300-
NORTH MIDDLE TENNESSEE

CITY           SKY/WX    TMP DP  RH WIND       PRES   REMARKS
NASHVILLE      CLOUDY    74  55  51 W7        30.02R
CLARKSVILLE    LGT RAIN  64  61  90 CALM      30.03F
SMYRNA         CLOUDY    75  59  57 SW5       30.02R
COOKEVILLE     SUNNY     75  55  50 VRB3      30.00R
CROSSVILLE     PTSUNNY   75  44  33 NW8       30.04R
$$

TNZ061-075-076-078-094-096-097-292300-
SOUTH MIDDLE TENNESSEE

CITY           SKY/WX    TMP DP  RH WIND       PRES   REMARKS
FAYETTEVILLE   SUNNY     73  55  53 NW7       30.00R
TULLAHOMA      SUNNY     72  57  60 N5        30.01S
WINCHESTER     SUNNY     77  57  50 CALM      29.99S
MCMINNVILLE    SUNNY     75  55  50 N3        30.01R
COLUMBIA       PTSUNNY   66  66 100 NW9       30.04R
SHELBYVILLE    SUNNY     75  63  64 N5        30.01R
$$

TNZ017-018-042-046-047-292300-
NORTHEAST TENNESSEE

CITY           SKY/WX    TMP DP  RH WIND       PRES   REMARKS
TRI CITIES     CLOUDY    77  52  41 SW9       29.99S
$$

TNZ012-013-036-069-073-074-292300-
CENTRAL EAST TENNESSEE

CITY           SKY/WX    TMP DP  RH WIND       PRES   REMARKS
KNOXVILLE      CLOUDY    81  48  31 CALM      29.97S
OAK RIDGE      CLOUDY    81  51  35 CALM      29.99R
$$

TNZ083-085-099-292300-
SOUTHEAST TENNESSEE

CITY           SKY/WX    TMP DP  RH WIND       PRES   REMARKS
CHATTANOOGA    CLOUDY    81  49  32 N8        29.97S
$$

SKY/WX REPORTED AS FAIR MEANS FEW OR NO CLOUDS BELOW
12 THOUSAND FEET.





USA.gov is the U.S. government's official web portal to all federal, state and local government web resources and services.